SCP
0 0 0 0 0 0 0 0 0 0 0 0 0 0 0 0 0 0 0 0 0 0 0 0 0 0 0 0 0 0 0 0 0 0 0 0 0 0 0 0 0 0 0
0 0 0 0 0 0 0 0 0 0 0 0 0 0 0 0 0 0 0 0 0 0 0 0 0 0 0 0 0 0 0 0 0 0 0 0 0 0 0 0 0 0 0
0 0 0 0 0 0 0 0 0 0 0 0 0 0 0 0 0 0 0 0 0 0 0 0 0 0 0 0 0 0 0 0 0 0 0 0 0 0 0 0 0 0 0
0 0 0 0 0 0 0 0 0 0 0 0 0 0 0 0 0 0 0 0 0 0 0 0 0 0 0 0 0 0 0 0 0 0 0 0 0 0 0 0 0 0 0
0 0 0 0 0 0 0 0 0 0 0 0 0 0 0 0 0 0 0 0 0 0 0 0 0 0 0 0 0 0 0 0 0 0 0 0 0 0 0 0 0 0 0
0 0 0 0 0 0 0 0 0 0 0 0 0 0 0 0 0 0 0 0 0 0 0 0 0 0 0 0 0 0 0 0 0 0 0 0 0 0 0 0 0 0 0
0 0 0 0 0 0 0 0 0 0 0 0 0 0 0 0 0 0 0 0 0 0 0 0 0 0 0 0 0 0 0 0 0 0 0 0 0 0 0 0 0 0 0
0 0 0 0 0 0 0 0 0 0 0 0 0 0 0 0 0 0 0 0 0 0 0 0 0 0 0 0 0 0 0 0 0 0 0 0 0 0 0 0 0 0 0
0 0 0 0 0 0 0 0 0 0 0 0 0 0 0 0 0 0 0 0 0 0 0 0 0 0 0 0 0 0 0 0 0 0 0 0 0 0 0 0 0 0 0
0 0 0 0 0 0 0 0 0 0 0 0 0 0 0 0 0 0 0 0 0 0 0 0 0 0 0 0 0 0 0 0 0 0 0 0 0 0 0 0 0 0 0
0 0 0 0 0 0 0 0 0 0 0 0 0 0 0 0 0 0 0 0 0 0 0 0 0 0 0 0 0 0 0 0 0 0 0 0 0 0 0 0 0 0 0
0 0 0 0 0 0 0 0 0 0 0 0 0 0 0 0 0 0 0 0 0 0 0 0 0 0 0 0 0 0 0 0 0 0 0 0 0 0 0 0 0 0 0
0 0 0 0 0 0 0 0 0 0 0 0 0 0 0 0 0 0 0 0 0 0 0 0 0 0 0 0 0 0 0 0 0 0 0 0 0 0 0 0 0 0 0
0 0 0 0 0 0 0 0 0 0 0 0 0 0 0 0 0 0 0 0 0 0 0 0 0 0 0 0 0 0 0 0 0 0 0 0 0 0 0 0 0 0 0
0 0 0 0 0 0 0 0 0 0 0 0 0 0 0 0 0 0 0 0 0 0 0 0 0 0 0 0 0 0 0 0 0 0 0 0 0 0 0 0 0 0 0
0 0 0 0 0 0 0 0 0 0 0 0 0 0 0 0 0 0 0 0 0 0 0 0 0 0 0 0 0 0 0 0 0 0 0 0 0 0 0 0 0 0 0
0 0 0 0 0 0 0 0 0 0 0 0 0 0 0 0 0 0 0 0 0 0 0 0 0 0 0 0 0 0 0 0 0 0 0 0 0 0 0 0 0 0 0
0 0 0 0 0 0 0 0 0 0 0 0 0 0 0 0 0 0 0 0 0 0 0 0 0 0 0 0 0 0 0 0 0 0 0 0 0 0 0 0 0 0 0
0 0 0 0 0 0 0 0 0 0 0 0 0 0 0 0 0 0 0 0 0 0 0 0 0 0 0 0 0 0 0 0 0 0 0 0 0 0 0 0 0 0 0
0 0 0 0 0 0 0 0 0 0 0 0 0 0 0 0 0 0 0 0 0 0 0 0 0 0 0 0 0 0 0 0 0 0 0 0 0 0 0 0 0 0 0
0 0 0 0 0 0 0 0 0 0 0 0 0 0 0 0 0 0 0 0 0 0 0 0 0 0 0 0 0 0 0 0 0 0 0 0 0 0 0 0 0 0 0
0 0 0 0 0 0 0 0 0 0 0 0 0 0 0 0 0 0 0 0 0 0 0 0 0 0 0 0 0 0 0 0 0 0 0 0 0 0 0 0 0 0 0
0 0 0 0 0 0 0 0 0 0 0 0 0 0 0 0 0 0 0 0 0 0 0 0 0 0 0 0 0 0 0 0 0 0 0 0 0 0 0 0 0 0 0
0 0 0 0 0 0 0 0 0 0 0 0 0 0 0 0 0 0 0 0 0 0 0 0 0 0 0 0 0 0 0 0 0 0 0 0 0 0 0 0 0 0 0
0 0 0 0 0 0 0 0 0 0 0 0 0 0 0 0 0 0 0 0 0 0 0 0 0 0 0 0 0 0 0 0 0 0 0 0 0 0 0 0 0 0 0
0 0 0 0 0 0 0 0 0 0 0 0 0 0 0 0 0 0 0 0 0 0 0 0 0 0 0 0 0 0 0 0 0 0 0 0 0 0 0 0 0 0 0
Wind_Speed
3 2 2 2 2 1 1 2 2 3 3 3 3 3 4 4 5 5 6 6 8 8 7 8 9 8 7 6 6 7 7 8 11 7 4 4 5 5 4 4 4 5 5
3 3 3 3 3 3 3 3 3 3 3 3 3 3 3 4 4 4 6 6 7 7 7 7 8 6 8 7 6 7 7 7 9 11 5 4 6 5 4 4 4 3 4
3 3 3 3 3 3 3 3 4 3 4 3 3 3 4 4 4 4 5 5 6 6 6 6 7 6 7 6 6 7 6 6 7 8 8 4 4 2 3 3 3 3 3
3 4 3 3 3 3 3 4 4 4 4 4 4 4 4 4 4 5 5 5 5 6 5 6 6 6 7 7 6 7 6 6 6 7 7 5 3 2 1 3 4 3 3
4 4 3 3 3 3 4 4 4 4 4 4 4 4 5 4 4 6 5 5 5 6 5 5 5 6 7 6 5 5 5 5 5 5 6 5 3 2 3 3 5 4 3
4 3 4 4 4 4 4 4 4 4 4 4 4 5 5 5 8 9 7 6 5 6 6 6 5 5 6 7 7 7 7 7 7 6 6 6 6 4 3 3 3 3 5
3 3 4 4 4 4 4 4 4 5 4 4 4 4 5 6 10 9 9 6 5 5 6 5 5 4 5 6 7 7 7 8 9 8 8 8 6 5 4 4 4 5 6
3 3 3 4 4 4 4 4 4 4 4 4 4 5 5 7 10 10 10 6 5 5 5 5 6 5 5 6 6 6 6 6 7 6 7 7 6 5 5 6 6 5 3
3 3 3 4 4 4 4 4 4 4 4 4 4 4 5 6 9 10 10 5 4 5 5 5 5 5 7 8 6 6 7 6 5 6 8 8 8 8 5 3 2 3 5
3 3 3 3 3 3 3 4 3 3 4 4 4 4 4 5 9 11 10 4 5 5 4 4 5 6 8 8 6 6 7 7 5 5 6 6 6 5 6 6 5 4 4
3 2 2 3 3 2 3 3 3 3 3 4 4 4 4 5 8 11 11 5 5 5 5 4 4 8 9 9 8 5 7 7 6 5 5 5 4 3 3 3 4 4 5
3 3 3 3 3 3 3 3 4 3 4 4 4 4 4 4 6 9 11 9 8 5 5 5 6 10 10 10 7 7 9 7 4 4 4 4 4 3 3 3 3 3 4
3 3 3 4 4 4 3 3 3 3 3 3 3 4 4 4 5 9 10 10 10 6 5 8 10 11 10 7 8 9 6 3 3 4 4 5 4 4 3 2 2 2 2
2 3 3 3 3 4 3 3 2 3 3 3 3 4 5 5 5 5 5 5 7 6 5 7 9 9 8 7 6 6 4 3 3 4 4 4 3 3 3 3 3 3 3
3 3 2 2 3 3 3 3 3 2 3 3 3 3 4 5 7 11 8 5 5 5 5 4 5 5 5 5 5 5 4 4 4 4 4 4 4 3 4 3 3 3 3
2 2 2 2 2 2 3 3 5 5 6 7 7 6 5 7 11 12 11 11 11 10 5 4 5 5 5 5 5 5 5 4 4 4 4 4 4 4 4 3 3 3 3
2 1 2 2 2 2 2 2 3 5 6 7 9 9 9 10 11 11 11 10 10 9 5 4 4 5 5 5 5 5 5 5 5 4 4 4 4 4 3 4 3 3 3
2 2 1 1 2 2 2 2 2 3 4 4 6 10 11 12 12 12 11 8 6 6 3 3 4 5 5 5 5 5 5 5 5 4 4 4 4 4 4 4 4 4 4
2 2 2 1 1 1 2 2 2 2 3 4 4 5 9 10 10 12 10 5 4 4 4 4 4 4 5 5 5 5 5 5 5 5 4 4 4 4 4 4 4 5 4
2 2 2 1 1 1 1 2 2 2 3 3 4 5 5 5 5 6 5 4 4 4 4 4 4 4 4 5 5 5 5 5 5 5 5 5 4 4 5 5 4 4 4
1 2 2 1 1 1 1 1 2 2 2 3 3 5 8 4 3 4 4 4 4 4 4 5 5 5 4 4 4 5 6 5 5 5 5 5 5 4 4 4 5 4 4
1 1 1 1 1 1 1 1 1 2 2 3 4 5 8 4 3 3 4 4 4 3 4 4 5 4 4 4 4 5 5 5 5 5 5 5 5 5 5 4 4 4 4
1 1 1 1 1 2 2 1 2 2 3 3 4 4 4 3 3 4 4 4 4 4 4 4 4 5 4 4 4 4 5 6 5 5 6 6 5 5 5 5 5 5 5
1 1 1 1 1 1 2 2 2 2 3 3 4 4 4 4 4 4 4 4 4 4 4 4 5 6 8 6 5 5 5 6 6 5 6 5 5 5 5 5 5 5 5
0 1 1 1 1 2 2 2 3 3 3 3 4 4 4 4 4 4 4 4 5 5 6 5 5 6 8 9 8 8 9 11 10 7 5 4 5 5 5 5 5 5 5
1 1 1 1 2 2 2 3 3 3 3 3 3 4 4 4 4 5 5 5 5 5 6 5 6 8 9 8 9 11 12 12 11 9 5 4 4 4 4 4 5 5 5
Wind_Direction
75 78 78 66 57 52 35 355 331 325 320 308 296 286 279 273 265 256 256 257 251 251 246 245 247 244 244 243 239 238 239 241 262 268 233 232 221 231 240 234 238 241 246
64 67 64 52 47 40 17 355 349 339 337 327 317 309 302 296 288 276 271 268 263 261 259 254 256 253 249 247 245 244 243 238 250 267 263 238 233 229 231 232 236 238 244
56 61 54 45 40 27 7 354 354 349 345 343 342 332 325 318 311 300 289 283 278 272 268 263 263 259 259 257 253 252 251 249 245 258 267 251 239 229 244 253 247 252 249
56 59 50 33 25 14 5 0 355 355 352 349 348 338 330 325 324 320 311 300 293 289 281 273 271 267 268 268 263 260 261 259 256 259 266 264 250 234 220 247 265 250 254
59 54 38 24 21 18 12 5 1 2 358 349 348 344 340 335 340 333 318 307 300 297 294 287 283 281 279 277 276 275 271 266 263 263 267 271 261 245 239 233 251 264 263
60 48 29 23 20 17 12 6 5 2 358 358 354 348 345 346 349 347 336 317 311 305 302 299 295 285 290 284 276 271 266 266 269 264 265 265 267 256 248 239 245 259 268
59 47 30 20 16 9 4 6 5 356 353 354 350 347 341 342 350 349 346 325 315 312 310 309 307 308 299 295 291 285 273 264 259 262 267 267 269 262 256 259 249 250 255
55 39 24 17 12 5 4 3 354 351 347 342 341 340 338 344 351 348 343 328 321 321 317 312 308 310 313 307 301 295 287 281 271 263 266 272 271 268 252 251 254 263 273
41 23 9 9 7 0 357 352 346 346 342 339 337 338 336 337 349 349 348 327 323 321 319 320 315 311 318 318 307 299 297 294 297 281 278 281 280 272 258 255 246 251 269
14 4 356 359 2 354 347 342 340 342 338 337 340 339 336 336 351 355 353 335 327 324 325 322 318 320 322 322 307 298 295 299 306 308 301 296 290 278 253 235 228 240 258
9 4 0 2 356 358 355 350 350 352 349 349 348 346 345 345 349 355 354 344 330 323 322 325 327 331 327 324 314 298 295 304 301 295 295 297 297 290 275 260 245 236 244
16 13 9 4 4 14 12 5 6 4 1 355 350 343 346 348 350 350 351 346 338 323 320 322 325 332 332 328 322 317 317 316 305 301 298 297 297 295 289 283 278 274 263
25 17 10 8 10 14 18 14 8 8 7 355 349 341 340 346 345 348 347 346 342 335 325 327 327 329 330 330 332 331 328 320 311 305 299 295 297 296 299 302 313 305 309
33 17 15 12 10 12 12 12 8 5 0 355 348 342 337 338 342 345 344 345 345 341 335 331 331 335 338 338 337 339 337 326 309 297 297 299 305 303 298 298 291 288 291
37 24 15 14 9 5 4 355 354 356 359 349 339 338 336 332 339 342 343 339 337 335 333 332 336 341 346 344 341 340 339 337 326 315 305 302 303 302 299 301 288 285 276
43 24 9 6 3 6 1 352 360 1 3 6 3 355 339 338 338 344 348 351 353 357 359 343 341 340 336 334 333 330 331 330 325 318 309 302 302 301 302 303 293 281 276
35 13 359 1 0 359 359 356 344 347 357 6 3 359 356 350 351 352 355 2 10 16 21 0 348 341 335 331 327 324 322 324 323 319 318 316 311 305 303 301 297 293 286
27 20 8 356 354 348 345 338 332 333 335 338 347 354 359 358 360 2 3 9 9 18 11 351 338 333 331 327 325 322 321 323 325 323 321 319 316 310 307 302 297 292 290
27 13 358 355 353 342 338 341 342 342 337 329 334 346 356 354 0 9 15 19 359 351 348 339 330 326 325 323 320 320 320 319 320 319 318 318 316 314 307 303 301 298 294
20 8 357 356 356 352 355 358 353 347 340 334 334 334 341 356 0 356 4 359 352 339 333 327 323 321 321 320 319 319 319 319 322 321 318 317 316 311 305 303 300 298 295
5 2 1 5 358 351 352 347 338 335 330 324 319 326 345 350 340 335 336 337 333 326 322 320 316 317 317 317 318 320 318 316 317 317 315 316 318 315 310 305 301 298 297
4 9 10 355 341 345 338 330 328 325 320 318 318 326 342 343 327 322 320 318 314 308 308 308 309 308 309 311 312 312 310 310 313 315 314 313 312 312 312 310 307 306 302
10 7 2 346 333 331 335 332 326 319 314 311 312 318 324 321 316 316 314 313 313 312 312 308 305 307 307 302 297 294 294 296 298 300 305 308 310 310 307 304 304 305 301
2 345 339 332 331 329 324 320 317 312 308 307 307 307 309 308 307 307 307 308 310 309 309 307 302 302 306 308 301 294 288 289 290 286 286 288 295 299 302 301 299 296 295
348 325 316 308 309 307 308 307 305 304 302 301 302 303 305 306 305 304 305 305 306 305 306 305 303 304 306 306 305 300 298 298 295 289 282 281 286 292 295 296 298 300 297
278 283 288 290 288 288 290 293 295 297 296 297 298 299 301 301 299 300 302 303 305 304 304 303 302 303 304 303 301 303 303 301 297 293 286 279 284 290 297 297 298 296 295